SL-8 DEB, 19260

Orbit data source: Space-Track

SL-8 DEB, 19260 is space debris in LEO originally from a launch on Tue, 21 Jun 1988 UTC launched from the Plesetsk Missile And Space Complex (PKMTR). Debris objects in space refer to the collection of defunct objects orbiting the Earth. Examples of debris include non-operational satellites, rocket bodies, and fragments generated from explosions, collisions, or faulty payload assembly.

Loading next visibility...
Identifier
19260, 1988-053C
Orbit
LEO
Country
Flag of CISCIS
Related business
Manufacturer
Unknown
Mission
Spacecraft
Bus & Motor
Unknown
Mass
Unknown
Launch date (UTC)
1988-06-21 (38 years ago)
Launch vehicle
Unknown
Launch site
Plesetsk Missile And Space Complex (PKMTR)
Object type
Payload
Rocket body
Debris
Shape & HBR
Unknown shape, 0.1 m
Radar Cross Section
Medium (>0.1 m² and <1 m²)

Expand to show TLE details & history
Last TLE update: 2 days ago

TLE from 2 days ago
0 SL-8 DEB
1 19260U 88053C   26171.45059683  .00001282  00000-0  26824-3 0  9997
2 19260  74.0583 339.8289 0006679 137.3566 252.2411 14.60843681  2222
Epoch: 2026-06-20T10:48Z
TLE epoch observation values (Epoch: 2026-06-20T10:48:51.566Z)
Latitude
28.33583°
Longitude
-82.23826°
Altitude
695.097 km
Speed
7.511 km/s
True Right ascension
23h 14m 33s
True Declination
28° 11' 28"
Sunlit
Object was in daylight at epoch
Visualization orbit readout
Latitude
Unknown
Longitude
Unknown
Altitude
Unknown
Speed
Unknown
Apparent Right ascension
Unknown
Apparent Declination
Unknown
Sunlit
N/A
Visualization observer readout
Local Sidereal Time
23:08:33
Azimuth
Unknown
Elevation
Unknown
Doppler factor
Unknown
Orbital elements
Apogee altitude
692.765 km
Perigee altitude
683.326 km
Semi-major axis
7,066.183 km
Eccentricity
0.00067
Inclination
74.0583°
RAAN
339.8289°
Arg. of periapsis
137.3566°
True anomaly
252.16823°
Mean anomaly
252.2411°
Eccentric anomaly
252.20466°
Mean motion
3.65398 °/min
Orbital period
98.52 mins
BSTAR
0.00026824
Loading maneuver chart data...
Computing Atmospheric mass density...
Loading historical data...
Loading historical data...
Loading historical data...
Loading historical data...
Loading historical data...
Loading historical data...
Loading historical data...
Other satellites on launch #53 in the year 1988 (1988-06-21 UTC)

Documentation

Showing up to 5 results
|